Simultaneous Nadir Overpasses (SNOs) Predictions

Prediction of SNOs between AQUA and METOP-A Satellite Orbit:

Table of predicted SNOs for the next 14.0 days since TLE Epoch: 8/21/2021
Index Date (AQUA) Time (AQUA) Lat,Lon (AQUA) SZA (AQUA ) Date (METOP-A) Time (METOP-A) Lat,Lon (METOP-A) SZA (METOP-A ) Distance(km) Time Diff (sec)
1 08/23/2021 04:06:02 -77.65, -78.62 113.17 08/23/2021 04:05:02 -77.66, -78.58 113.15 0.95 60
2 08/23/2021 04:55:30 77.69, 88.85 66.90 08/23/2021 04:55:41 77.70, 88.95 66.90 2.54 11
3 08/25/2021 23:40:16 -77.68, -12.28 112.19 08/25/2021 23:39:22 -77.65, -12.29 112.20 3.57 54
4 08/26/2021 00:29:43 77.68, 155.35 67.83 08/26/2021 00:30:01 77.69, 155.22 67.84 3.29 18
5 08/28/2021 19:14:30 -77.66, 54.23 111.23 08/28/2021 19:13:42 -77.67, 54.17 111.20 1.76 48
6 08/28/2021 20:03:58 77.72,-138.36 68.85 08/28/2021 20:04:21 77.71,-138.33 68.84 0.92 23
7 08/31/2021 14:48:45 -77.70, 120.51 110.19 08/31/2021 14:48:02 -77.70, 120.63 110.19 2.83 43
8 08/31/2021 15:38:12 77.71, -71.90 69.84 08/31/2021 15:38:41 77.73, -71.89 69.85 2.31 29
9 09/03/2021 10:22:58 -77.70,-173.03 109.19 09/03/2021 10:22:22 -77.68,-173.11 109.19 2.52 36
10 09/03/2021 11:12:25 77.71, -5.47 70.85 09/03/2021 11:13:01 77.71, -5.65 70.85 4.25 36



Historial Predications of SNOs between AQUA and METOP-A
